Elko, NV

7:11 AM PST on February 25, 2017 (GMT -0800)
Elko Regional

Weather History for KEKO - March, 2014

Change the Weather History Date:

Wednesday, March 26, 2014

  Actual Average Record
Temperature  
Mean Temperature 42 °F 41 °F  
Max Temperature 51 °F 54 °F 73 °F (1988)
Min Temperature 32 °F 28 °F 7 °F (1913)
Degree Days  
Heating Degree Days 23 24  
Month to date heating degree days 631 694  
Since 1 July heating degree days 5362 5862  
Cooling Degree Days 0 0  
Month to date cooling degree days 0 0  
Year to date cooling degree days 0 0  
Moisture  
Dew Point 28 °F    
Average Humidity 62    
Maximum Humidity 92    
Minimum Humidity 31    
Precipitation  
Precipitation 0.13 in 0.03 in 0.50 in (1904)
Month to date precipitation 0.83 0.84  
Year to date precipitation 3.17 2.80  
Snow  
Snow 1.00 in 0.10 in 2.90 in (1945)
Month to date snowfall 2.1 4.3  
Since 1 July snowfall 14.4 36.8  
Snow Depth 0.00 in    
Sea Level Pressure  
Sea Level Pressure 29.63 in    
Wind  
Wind Speed 10 mph (SW)    
Max Wind Speed 29 mph    
Max Gust Speed 35 mph    
Visibility 9 miles    
Events Rain , Snow    
T = Trace of Precipitation, MM = Missing Value Source: NWS Daily Summary

Daily Weather History Graph

Daily Weather History Graph

Search for Another Location

Airport or City:

Trip Planner

Search our weather history database for the weather conditions in past years. The results will help you decide how hot, cold, wet, or windy it might be!

Date:

Astronomy

Mar. 26, 2014 Rise Set
Actual Time 6:36 AM PDT 7:01 PM PDT
Civil Twilight 6:08 AM PDT 7:29 PM PDT
Nautical Twilight 5:36 AM PDT 8:01 PM PDT
Astronomical Twilight 5:03 AM PDT 8:34 PM PDT
Moon 3:49 AM PDT (3/26) 2:43 PM PDT (3/26)
Length of Visible Light 13h 20m
Length of Day
12h 25m
Waning Crescent, 21% of the Moon is Illuminated
Mar 26
Waning Crescent
Mar 30
New
Apr 7
First Quarter
Apr 15
Full
Apr 22
Last Quarter

Hourly Weather History & Observations

Time (PDT) Temp. Windchill Dew Point Humidity Pressure Visibility Wind Dir Wind Speed Gust Speed Precip Events Conditions
12:56 AM 43.0 °F 37.2 °F 33.1 °F 68% 29.60 in 10.0 mi WSW 10.4 mph - 0.00 in   Overcast
1:56 AM 42.1 °F 35.7 °F 33.1 °F 70% 29.57 in 10.0 mi SSE 11.5 mph 17.3 mph N/A   Mostly Cloudy
2:56 AM 39.9 °F 34.5 °F 33.1 °F 77% 29.57 in 10.0 mi West 8.1 mph - N/A   Mostly Cloudy
3:56 AM 37.9 °F - 33.1 °F 83% 29.57 in 10.0 mi Calm Calm - N/A   Overcast
4:56 AM 37.0 °F 33.3 °F 32.0 °F 82% 29.57 in 10.0 mi SSW 4.6 mph - N/A   Mostly Cloudy
5:56 AM 39.0 °F 31.0 °F 32.0 °F 76% 29.59 in 9.0 mi WSW 13.8 mph - 0.00 in Rain Light Rain
6:56 AM 36.0 °F 29.6 °F 33.1 °F 89% 29.60 in 10.0 mi SW 8.1 mph - 0.00 in   Mostly Cloudy
8:41 AM 36.0 °F 28.5 °F 34.0 °F 93% 29.66 in 10.0 mi SSW 10.4 mph - 0.02 in   Overcast
8:56 AM 36.0 °F 30.3 °F 34.0 °F 93% 29.63 in 10.0 mi SSW 6.9 mph - 0.02 in   Overcast
9:40 AM 39.9 °F 33.9 °F 35.1 °F 83% 29.66 in 10.0 mi SSW 9.2 mph - N/A   Mostly Cloudy
9:56 AM 41.0 °F 34.3 °F 35.1 °F 79% 29.62 in 10.0 mi SSW 11.5 mph - N/A   Mostly Cloudy
10:33 AM 44.1 °F 37.1 °F 30.9 °F 60% 29.66 in 10.0 mi WSW 15.0 mph - N/A   Scattered Clouds
10:56 AM 39.9 °F 30.0 °F 30.0 °F 68% 29.64 in 7.0 mi West 21.9 mph 33.4 mph 0.00 in Rain Light Rain
11:56 AM 44.1 °F 39.0 °F 30.9 °F 60% 29.61 in 10.0 mi SSW 9.2 mph - 0.00 in   Mostly Cloudy
12:20 PM 46.9 °F - 23.0 °F 39% 29.64 in 10.0 mi West 15.0 mph - N/A   Mostly Cloudy
12:56 PM 48.0 °F - 23.0 °F 37% 29.60 in 10.0 mi West 13.8 mph 26.5 mph 0.00 in   Mostly Cloudy
1:56 PM 48.9 °F - 21.9 °F 35% 29.58 in 10.0 mi WSW 17.3 mph 26.5 mph N/A   Overcast
2:56 PM 48.9 °F - 19.0 °F 31% 29.59 in 10.0 mi West 19.6 mph 28.8 mph 0.00 in   Mostly Cloudy
3:56 PM 46.9 °F - 21.0 °F 36% 29.60 in 10.0 mi West 11.5 mph 31.1 mph N/A   Mostly Cloudy
4:56 PM 48.9 °F - 19.0 °F 31% 29.59 in 10.0 mi West 15.0 mph - N/A   Clear
5:56 PM 46.9 °F - 19.0 °F 33% 29.60 in 10.0 mi West 12.7 mph - N/A   Partly Cloudy
6:56 PM 42.1 °F 37.7 °F 21.0 °F 43% 29.62 in 10.0 mi SSW 6.9 mph - N/A   Partly Cloudy
7:56 PM 37.9 °F 32.7 °F 23.0 °F 55% 29.65 in 10.0 mi SW 6.9 mph - N/A   Mostly Cloudy
8:56 PM 37.9 °F 34.4 °F 23.0 °F 55% 29.68 in 10.0 mi SSW 4.6 mph - N/A   Partly Cloudy
9:56 PM 34.0 °F 31.0 °F 23.0 °F 64% 29.68 in 10.0 mi SW 3.5 mph - N/A   Scattered Clouds
10:56 PM 34.0 °F - 23.0 °F 64% 29.70 in 10.0 mi Calm Calm - N/A   Mostly Cloudy
11:50 PM 33.8 °F 25.8 °F 30.2 °F 87% 29.72 in 2.5 mi SW 10.4 mph - 0.01 in Snow Light Snow
11:51 PM 34.0 °F 26.6 °F 30.0 °F 85% 29.72 in 2.0 mi SW 9.2 mph - 0.01 in Snow Light Snow
11:58 PM 33.1 °F 25.5 °F 30.9 °F 92% 29.72 in 1.2 mi SW 9.2 mph - 0.02 in Snow Light Snow